Weather in Karakol

Kyrgyzstan     42°29′28″N   78°23′58″E
temp.,
°C
wind,
m/s
gust,
m/s
humid.,
%
clouds,
%
prec.,
mm/h
press.,
hPa
HPBL,
m
21 april, wed
wed2100:00+4s1260100 0.0 101113
03:00+3ssw22565 0.0 100916
06:00+3ssw225218 0.0 100811
09:00+6nw3248100 0.0 1008512
12:00+9w4446100 0.0 10081394
15:00+8wnw5554100 0.2 10081376
18:00+4wnw3583100 1.4 1013623
21:00+3ene2180100 1.3 1017344
22 april, thu
thu2200:00+1ne3394100 1.9 1018287
03:000nw2299100 3.7 1019103
06:00−2ne3499100 7.6 1022198
09:00−1nnw33100100 4.2 1023272
12:00−1nnw2299100 8.1 1025276
15:000n019398 0.8 1025329
18:000nne2386100 1.4 1026189
21:00−5se348331 0.4 1033123
23 april, fri
fri2300:00−6sse347227 0.4 103587
03:00−7sse43681 0.0 103438
06:00−7sse43645 0.0 103532
09:00−2nnw11531 0.0 1031280
12:00+1wnw22650 0.0 1028691
15:00+3wnw25500 0.0 10251406
18:00+3wnw23580 0.0 1024320
21:00−2sse44630 0.0 103039
24 april, sat
sat2400:00−3sse43560 0.0 103035
03:00−3sse44531 0.0 102836
06:00−3sse43496 0.0 102730
09:00+2nnw22375 0.0 1024422
12:00+6wnw36370 0.0 10211264
15:00+8w48340 0.0 10191666
18:00+7nw224689 0.0 1020294
21:00+2sse3352100 0.0 102330
25 april, sun
sun2500:00+2s3247100 0.0 102325
03:00+3s2247100 0.0 102219
06:00+3s1250100 0.0 102312
09:00+6wnw12443 0.0 1023371
12:00+11wnw463711 0.0 10221218
15:00+12wnw4731100 0.0 10191608
18:00+11wnw223998 0.0 1020229
21:00+7sse3344100 0.0 102230